TimeIST,TemperatureF,Dew PointF,Humidity,Sea Level PressureIn,VisibilityMPH,Wind Direction,Wind SpeedMPH,Gust SpeedMPH,PrecipitationIn,Events,Conditions,WindDirDegrees,DateUTC
12:10 AM,78.8,71.6,78,29.80,2.5,WNW,4.6,-,N/A,,Haze,300,2013-03-21 18:40:00
12:40 AM,78.8,71.6,78,29.80,2.5,Calm,Calm,-,N/A,,Haze,0,2013-03-21 19:10:00
1:10 AM,78.8,71.6,78,29.80,2.5,NW,4.6,-,N/A,,Haze,310,2013-03-21 19:40:00
2:10 AM,78.8,69.8,74,29.77,3.1,NW,5.8,-,N/A,,Haze,320,2013-03-21 20:40:00
2:30 AM,77,70,73,29.78,1,Calm,Calm,,,,Haze,,2013-03-21 21:00:00
2:40 AM,78.8,71.6,78,29.77,3.1,NW,3.5,-,N/A,,Haze,310,2013-03-21 21:10:00
3:10 AM,77.0,71.6,83,29.77,3.1,NW,4.6,-,N/A,,Haze,320,2013-03-21 21:40:00
3:40 AM,77.0,71.6,83,29.77,3.1,NNE,5.8,-,N/A,,Mist,20,2013-03-21 22:10:00
4:10 AM,77.0,71.6,83,29.77,3.1,North,3.5,-,N/A,,Mist,350,2013-03-21 22:40:00
4:40 AM,77.0,71.6,83,29.77,2.5,North,4.6,-,N/A,,Mist,360,2013-03-21 23:10:00
5:10 AM,77.0,71.6,83,29.77,2.5,NE,4.6,-,N/A,,Mist,50,2013-03-21 23:40:00
5:30 AM,74,71,86,29.77,1,Calm,Calm,,,,Haze,,2013-03-22 00:00:00
5:40 AM,77.0,71.6,83,29.77,2.5,Calm,Calm,-,N/A,,Mist,0,2013-03-22 00:10:00
6:10 AM,77.0,71.6,83,29.77,2.5,SE,4.6,-,N/A,,Partly Cloudy,140,2013-03-22 00:40:00
6:40 AM,77.0,71.6,83,29.77,2.2,NE,4.6,-,N/A,,Partly Cloudy,40,2013-03-22 01:10:00
7:40 AM,77.0,69.8,78,29.80,1.9,Calm,Calm,-,N/A,,Partly Cloudy,0,2013-03-22 02:10:00
8:10 AM,77.0,69.8,78,29.80,1.9,ESE,4.6,-,N/A,,Haze,110,2013-03-22 02:40:00
8:30 AM,78,69,68,29.82,1,,2.3,,,,Haze,,2013-03-22 03:00:00
8:40 AM,78.8,66.2,65,29.83,2.2,NE,3.5,-,N/A,,Haze,50,2013-03-22 03:10:00
9:10 AM,80.6,64.4,58,29.83,2.5,Calm,Calm,-,N/A,,Smoke,0,2013-03-22 03:40:00
10:10 AM,86.0,57.2,37,29.83,3.1,NE,3.5,-,N/A,,Smoke,40,2013-03-22 04:40:00
10:40 AM,87.8,57.2,35,29.83,3.1,NW,4.6,-,N/A,,Smoke,310,2013-03-22 05:10:00
11:10 AM,87.8,62.6,43,29.83,3.1,WNW,6.9,-,N/A,,Smoke,290,2013-03-22 05:40:00
11:30 AM,88,66,38,29.81,1,West,4.6,,,,Smoke,270,2013-03-22 06:00:00
11:40 AM,86.0,66.2,51,29.80,3.1,West,10.4,-,N/A,,Smoke,270,2013-03-22 06:10:00
12:10 PM,86.0,66.2,51,29.80,3.1,WSW,10.4,-,N/A,,Smoke,250,2013-03-22 06:40:00
12:40 PM,86.0,68.0,55,29.77,3.1,West,10.4,-,N/A,,Smoke,270,2013-03-22 07:10:00
1:10 PM,84.2,68.0,58,29.77,3.1,West,11.5,-,N/A,,Smoke,260,2013-03-22 07:40:00
1:40 PM,86.0,69.8,58,29.74,3.1,West,10.4,-,N/A,,Smoke,280,2013-03-22 08:10:00
2:10 PM,87.8,71.6,58,29.74,4.3,WNW,8.1,-,N/A,,Unknown,300,2013-03-22 08:40:00
2:30 PM,89,71,47,29.74,1,WNW,6.9,,,,Smoke,290,2013-03-22 09:00:00
2:40 PM,86.0,73.4,66,29.74,5.0,West,9.2,-,N/A,,Unknown,280,2013-03-22 09:10:00
3:10 PM,84.2,73.4,70,29.71,5.0,West,11.5,23.0,N/A,,Partly Cloudy,270,2013-03-22 09:40:00
3:40 PM,86.0,71.6,62,29.71,5.0,WNW,11.5,-,N/A,,Partly Cloudy,290,2013-03-22 10:10:00
4:10 PM,84.2,73.4,70,29.71,-9999.0,WNW,9.2,20.7,N/A,,Clear,290,2013-03-22 10:40:00
4:40 PM,84.2,73.4,70,29.71,-9999.0,West,15.0,-,N/A,,Clear,260,2013-03-22 11:10:00
5:10 PM,84.2,73.4,70,29.71,5.0,West,16.1,-,N/A,,Partly Cloudy,270,2013-03-22 11:40:00
5:30 PM,85,75,64,29.72,1,NW,9.2,,,,Smoke,320,2013-03-22 12:00:00
5:40 PM,82.4,73.4,74,29.71,5.0,West,13.8,-,N/A,,Partly Cloudy,280,2013-03-22 12:10:00
6:10 PM,80.6,75.2,84,29.74,4.3,West,11.5,-,N/A,,Scattered Clouds,280,2013-03-22 12:40:00
6:40 PM,80.6,73.4,79,29.74,3.7,WNW,12.7,-,N/A,,Scattered Clouds,290,2013-03-22 13:10:00
7:40 PM,80.6,73.4,79,29.74,2.5,WNW,10.4,-,N/A,,Haze,300,2013-03-22 14:10:00
8:10 PM,80.6,73.4,79,29.77,2.5,WNW,6.9,-,N/A,,Haze,290,2013-03-22 14:40:00
8:30 PM,81,74,73,29.77,1,NW,5.8,,,,Haze,320,2013-03-22 15:00:00
8:40 PM,80.6,73.4,79,29.77,2.5,NW,4.6,-,N/A,,Haze,310,2013-03-22 15:10:00
9:10 PM,80.6,73.4,79,29.77,2.5,Calm,Calm,-,N/A,,Haze,0,2013-03-22 15:40:00
9:40 PM,80.6,73.4,79,29.77,2.5,NW,6.9,-,N/A,,Haze,310,2013-03-22 16:10:00
10:10 PM,80.6,73.4,79,29.77,2.5,NW,4.6,-,N/A,,Haze,320,2013-03-22 16:40:00
10:40 PM,78.8,73.4,83,29.77,2.5,NW,5.8,-,N/A,,Haze,310,2013-03-22 17:10:00
11:10 PM,78.8,73.4,83,29.77,2.5,West,4.6,-,N/A,,Haze,280,2013-03-22 17:40:00
11:30 PM,78,74,83,29.78,1,North,3.5,,,,Haze,0,2013-03-22 18:00:00
11:40 PM,78.8,73.4,83,29.77,2.5,WNW,4.6,-,N/A,,Haze,300,2013-03-22 18:10:00